Cairns, Australia

4:53 PM AEST on February 20, 2018 (GMT +1000)
Cairns International

Weather History for YBCS - January, 2013

Change the Weather History Date:

Tuesday, January 22, 2013

  Actual Average Record
Temperature  
Mean Temperature 77 °F -  
Max Temperature 80 °F 88 °F 93 °F (2008)
Min Temperature 74 °F 74 °F 73 °F (1997)
Cooling Degree Days 12    
Growing Degree Days 27 (Base 50)    
Moisture  
Dew Point 76 °F    
Average Humidity 94    
Maximum Humidity 100    
Minimum Humidity 83    
Precipitation  
Precipitation 2.91 in 0.55 in - ()
Sea Level Pressure  
Sea Level Pressure 29.51 in    
Wind  
Wind Speed 8 mph ()    
Max Wind Speed 20 mph    
Max Gust Speed 16 mph    
Visibility 4.8 miles    
Events Rain    
Averages and records for this station are not official NWS values.
T = Trace of Precipitation, MM = Missing Value Source: Averaged Metar Reports

Daily Weather History Graph

Daily Weather History Graph

Search for Another Location

Airport or City:

Trip Planner

Search our weather history database for the weather conditions in past years. The results will help you decide how hot, cold, wet, or windy it might be!

Date:

Astronomy

Jan. 22, 2013 Rise Set
Actual Time 5:59 AM AEST 6:57 PM AEST
Civil Twilight 5:36 AM AEST 7:20 PM AEST
Nautical Twilight 5:09 AM AEST 7:47 PM AEST
Astronomical Twilight 4:40 AM AEST 8:15 PM AEST
Moon 2:59 PM AEST (1/22) 1:42 AM AEST (1/22)
Length of Visible Light 13h 43m
Length of Day
12h 57m
Waxing Gibbous, 78% of the Moon is Illuminated
Jan 22
Waxing Gibbous
Jan 27
Full
Feb 3
Last Quarter
Feb 10
New
Feb 18
First Quarter

Hourly Weather History & Observations

Time (AEST) Temp. Heat Index Dew Point Humidity Pressure Visibility Wind Dir Wind Speed Gust Speed Precip Events Conditions
12:00 AM 76 °F - 75 °F 94% 29.60 in - SSE 8.1 mph - -  
12:00 AM 77.0 °F - 75.2 °F 94% 29.59 in 6.2 mi SSE 8.1 mph - N/A   Mostly Cloudy
12:30 AM 75.2 °F - 75.2 °F 100% 29.56 in 6.2 mi SE 11.5 mph - N/A   Mostly Cloudy
1:00 AM 77 °F - 74 °F 86% 29.58 in - South 4.6 mph - -  
1:00 AM 77.0 °F - 73.4 °F 89% 29.56 in 6.2 mi South 4.6 mph - N/A   Mostly Cloudy
1:30 AM 77.0 °F - 73.4 °F 89% 29.53 in 6.2 mi SSE 10.4 mph - N/A   Mostly Cloudy
2:00 AM 77.0 °F - 73.4 °F 89% 29.53 in 6.2 mi Calm Calm - N/A   Mostly Cloudy
2:30 AM 75.2 °F - 75.2 °F 100% 29.53 in 6.2 mi Calm Calm - N/A   Mostly Cloudy
3:00 AM 76 °F - 74 °F 94% 29.54 in - SSW 1.2 mph - -   Overcast
3:00 AM 77.0 °F - 75.2 °F 94% 29.53 in 5.0 mi SSW 1.2 mph - N/A Rain Rain
3:30 AM 75.2 °F - 73.4 °F 94% 29.53 in 6.2 mi SSE 1.2 mph - N/A Rain Light Rain
4:00 AM 75 °F - 74 °F 94% 29.54 in - SSE 8.1 mph - -  
4:00 AM 75.2 °F - 73.4 °F 94% 29.53 in 6.2 mi SSE 8.1 mph - N/A Rain Light Rain
4:30 AM 75.2 °F - 75.2 °F 100% 29.50 in 6.2 mi WNW 1.2 mph - N/A   Mostly Cloudy
5:00 AM 75.2 °F - 73.4 °F 94% 29.50 in 6.2 mi SE 12.7 mph - N/A Rain Light Rain
5:30 AM 75.2 °F - 73.4 °F 94% 29.50 in 6.2 mi SSE 11.5 mph - N/A   Mostly Cloudy
6:00 AM 75 °F - 73 °F 93% 29.51 in 7 mi SE 12.7 mph - - Rain Light Rain Showers
6:00 AM 75.2 °F - 73.4 °F 94% 29.50 in 6.2 mi SE 12.7 mph - N/A Rain Light Rain Showers
6:23 AM 75.2 °F - 73.4 °F 94% 29.50 in 3.7 mi SSE 10.4 mph - N/A Rain Light Rain
6:30 AM 75.2 °F - 73.4 °F 94% 29.50 in 1.9 mi SSE 10.4 mph - N/A Rain Rain
7:00 AM 75 °F - 74 °F 95% 29.55 in - SSE 12.7 mph - -  
7:00 AM 75.2 °F - 73.4 °F 94% 29.53 in 3.1 mi SSE 12.7 mph - N/A Rain Light Rain
7:30 AM 77.0 °F - 73.4 °F 89% 29.53 in 6.2 mi South 10.4 mph - N/A   Mostly Cloudy
8:00 AM 78.8 °F - 75.2 °F 89% 29.53 in 6.2 mi South 11.5 mph - N/A   Mostly Cloudy
8:30 AM 77.0 °F - 75.2 °F 94% 29.53 in 6.2 mi South 12.7 mph - N/A   Mostly Cloudy
9:00 AM 78 °F - 74 °F 84% 29.55 in 9 mi South 16.1 mph - -   Overcast
9:00 AM 78.8 °F - 73.4 °F 83% 29.53 in 6.2 mi South 16.1 mph - N/A   Overcast
9:30 AM 78.8 °F - 75.2 °F 89% 29.56 in 6.2 mi South 13.8 mph - N/A   Overcast
10:00 AM 78 °F - 75 °F 88% 29.56 in - South 15.0 mph - -  
10:00 AM 78.8 °F - 75.2 °F 89% 29.53 in 5.0 mi South 15.0 mph - N/A Rain Light Rain Showers
10:09 AM 78.8 °F - 75.2 °F 89% 29.56 in 2.5 mi South 13.8 mph - N/A Rain Light Rain Showers
10:30 AM 77.0 °F - 77.0 °F 100% 29.53 in 1.2 mi South 12.7 mph - N/A Rain Rain Showers
11:00 AM 77.0 °F - 77.0 °F 100% 29.53 in 1.2 mi SSW 9.2 mph - N/A Rain Rain Showers
11:16 AM 78.8 °F - 77.0 °F 94% 29.53 in 5.6 mi SSE 4.6 mph 16.1 mph N/A Rain Light Rain Showers
11:30 AM 78.8 °F - 77.0 °F 94% 29.53 in 3.7 mi SE 9.2 mph - N/A Rain Light Rain Showers
12:00 PM 80 °F - 77 °F 88% 29.54 in 6 mi SSE 8.1 mph - - Rain Light Rain
12:00 PM 80.6 °F 87.1 °F 77.0 °F 89% 29.53 in 5.6 mi SSE 8.1 mph - N/A Rain Light Rain
12:18 PM 80.6 °F 88.1 °F 78.8 °F 94% 29.50 in 5.0 mi SE 5.8 mph - N/A Rain Light Rain
12:30 PM 78.8 °F - 77.0 °F 94% 29.50 in 3.7 mi NE 6.9 mph - N/A Rain Light Rain Showers
1:00 PM 79 °F - 78 °F 95% 29.52 in - ESE 8.1 mph - -  
1:00 PM 78.8 °F - 77.0 °F 94% 29.50 in 3.1 mi ESE 8.1 mph - N/A Rain Light Rain
1:30 PM 80.6 °F 88.1 °F 78.8 °F 94% 29.50 in 6.2 mi SE 3.5 mph - N/A   Mostly Cloudy
2:00 PM 80.6 °F 87.1 °F 77.0 °F 89% 29.47 in 5.6 mi SSE 5.8 mph - N/A Rain Light Rain Showers
2:30 PM 78.8 °F - 77.0 °F 94% 29.47 in 4.3 mi NE 10.4 mph - N/A Rain Light Rain Showers
3:00 PM 80 °F - 78 °F 91% 29.47 in 7 mi ESE 4.6 mph - - Rain Light Rain Showers
3:00 PM 78.8 °F - 77.0 °F 94% 29.44 in 6.2 mi ESE 4.6 mph - N/A Rain Light Rain Showers
3:15 PM 78.8 °F - 77.0 °F 94% 29.44 in 3.7 mi ESE 5.8 mph - N/A   Mostly Cloudy
3:30 PM 78.8 °F - 77.0 °F 94% 29.44 in 3.1 mi ESE 6.9 mph - N/A   Mostly Cloudy
4:00 PM 79 °F - 77 °F 93% 29.46 in - SSE 4.6 mph - -  
4:00 PM 78.8 °F - 77.0 °F 94% 29.44 in 3.1 mi SSE 4.6 mph - N/A Rain Light Rain Showers
4:30 PM 78.8 °F - 77.0 °F 94% 29.44 in 6.2 mi Calm Calm - N/A   Mostly Cloudy
5:00 PM 78.8 °F - 77.0 °F 94% 29.44 in 6.2 mi South 1.2 mph - N/A   Mostly Cloudy
5:30 PM 78.8 °F - 77.0 °F 94% 29.47 in 6.2 mi Calm Calm - N/A   Mostly Cloudy
6:00 PM 79 °F - 77 °F 92% 29.48 in 9 mi SSE 5.8 mph - -   Overcast
6:00 PM 78.8 °F - 77.0 °F 94% 29.47 in 6.2 mi SSE 5.8 mph - N/A   Mostly Cloudy
6:10 PM 78.8 °F - 77.0 °F 94% 29.47 in 6.2 mi South 6.9 mph - N/A   Mostly Cloudy
6:30 PM 78.8 °F - 77.0 °F 94% 29.50 in 1.9 mi SSE 8.1 mph - N/A Rain Rain Showers
6:32 PM 78.8 °F - 77.0 °F 94% 29.50 in 0.6 mi ENE 19.6 mph - N/A Rain Rain Showers
7:00 PM 76 °F - 75 °F 97% 29.51 in - WSW 4.6 mph - -  
7:00 PM 77.0 °F - 75.2 °F 94% 29.50 in 1.9 mi WSW 4.6 mph - N/A Rain Light Rain Showers
7:16 PM 77.0 °F - 75.2 °F 94% 29.47 in 3.7 mi SW 3.5 mph - N/A Rain Light Rain Showers
7:30 PM 77.0 °F - 77.0 °F 100% 29.50 in 6.2 mi South 4.6 mph - N/A   Mostly Cloudy
7:47 PM 77.0 °F - 77.0 °F 100% 29.50 in 2.5 mi SSE 6.9 mph - N/A Rain Light Rain
8:00 PM 77.0 °F - 77.0 °F 100% 29.50 in 2.5 mi SSE 9.2 mph - N/A Rain Light Rain
8:26 PM 77.0 °F - 77.0 °F 100% 29.50 in 2.5 mi SSE 9.2 mph - N/A Rain Light Rain Showers
8:30 PM 77.0 °F - 77.0 °F 100% 29.50 in 3.7 mi SSE 11.5 mph - N/A   Mostly Cloudy
9:00 PM 78 °F - 76 °F 91% 29.50 in 4 mi South 13.8 mph - - Rain Light Rain Showers
9:00 PM 78.8 °F - 75.2 °F 89% 29.50 in 4.3 mi South 13.8 mph - N/A Rain Light Rain Showers
9:30 PM 78.8 °F - 77.0 °F 94% 29.50 in 6.2 mi South 12.7 mph - N/A   Mostly Cloudy
10:00 PM 78 °F - 76 °F 91% 29.52 in - South 12.7 mph - -  
10:00 PM 78.8 °F - 75.2 °F 89% 29.50 in 6.2 mi South 12.7 mph - N/A Rain Light Rain Showers
10:28 PM 78.8 °F - 77.0 °F 94% 29.50 in 2.5 mi NE 13.8 mph - N/A Rain Light Rain Showers
10:30 PM 78.8 °F - 77.0 °F 94% 29.50 in 2.5 mi NE 12.7 mph - N/A Rain Light Rain Showers
10:41 PM 77.0 °F - 77.0 °F 100% 29.50 in 0.6 mi East 8.1 mph - N/A Rain Rain Showers
10:52 PM 77.0 °F - 75.2 °F 94% 29.50 in 3.1 mi SE 10.4 mph - N/A Rain Light Rain
11:00 PM 77.0 °F - 77.0 °F 100% 29.50 in 3.7 mi SSE 8.1 mph - N/A Rain Light Rain
11:30 PM 78.8 °F - 77.0 °F 94% 29.47 in 6.2 mi ESE 9.2 mph - N/A   Mostly Cloudy